| time (UTC) | temp F | wind direction | speed MPH | gust MPH | rain 1hr in | rain 24hr in | rain mn in | humidity % | barometer mb |
| 20260507144518 | 50 | 197 | 3.0 | 9.0 | 0.00 | 0.08 | 0.00 | 55 | 1013.6 |
| 20260507143014 | 50 | 219 | 4.0 | 8.0 | 0.00 | 0.08 | 0.00 | 55 | 1013.6 |
| 20260507141512 | 49 | 272 | 0.0 | 7.0 | 0.00 | 0.08 | 0.00 | 57 | 1013.7 |
| 20260507140018 | 48 | 282 | 1.0 | 12.0 | 0.00 | 0.08 | 0.00 | 65 | 1013.7 |
| 20260507134507 | 47 | 186 | 2.0 | 9.0 | 0.00 | 0.17 | 0.00 | 71 | 1013.8 |
| 20260507133004 | 47 | 260 | 3.0 | 8.0 | 0.00 | 0.17 | 0.00 | 72 | 1013.9 |
| 20260507131501 | 46 | 167 | 1.0 | 5.0 | 0.00 | 0.17 | 0.00 | 73 | 1013.8 |
| 20260507130059 | 45 | 292 | 1.0 | 4.0 | 0.00 | 0.17 | 0.00 | 76 | 1013.9 |
| 20260507124600 | 44 | 288 | 2.0 | 5.0 | 0.00 | 0.27 | 0.00 | 80 | 1014.0 |
| 20260507123059 | 42 | 266 | 1.0 | 8.0 | 0.00 | 0.27 | 0.00 | 83 | 1014.2 |
| 20260507121555 | 41 | 339 | 2.0 | 8.0 | 0.00 | 0.27 | 0.00 | 87 | 1014.1 |
| 20260507114553 | 38 | 306 | 0.0 | 2.0 | 0.00 | 0.28 | 0.00 | 90 | 1013.9 |
| 20260507113053 | 36 | 306 | 0.0 | 1.0 | 0.00 | 0.28 | 0.00 | 89 | 1013.8 |
| 20260507111552 | 35 | 306 | 0.0 | 0.0 | 0.00 | 0.28 | 0.00 | 88 | 1013.8 |
| 20260507110055 | 35 | 306 | 0.0 | 1.0 | 0.00 | 0.28 | 0.00 | 87 | 1013.8 |
| 20260507104550 | 35 | 306 | 0.0 | 1.0 | 0.00 | 0.30 | 0.00 | 86 | 1013.7 |
| 20260507103048 | 35 | 306 | 0.0 | 1.0 | 0.00 | 0.30 | 0.00 | 85 | 1013.4 |
| 20260507101600 | 36 | 306 | 0.0 | 1.0 | 0.00 | 0.30 | 0.00 | 85 | 1013.3 |
| 20260507100043 | 37 | 306 | 0.0 | 2.0 | 0.00 | 0.30 | 0.00 | 85 | 1013.3 |
| 20260507094551 | 37 | 306 | 0.0 | 2.0 | 0.00 | 0.30 | 0.00 | 85 | 1013.2 |
| 20260507093037 | 39 | 306 | 0.0 | 1.0 | 0.00 | 0.30 | 0.00 | 84 | 1013.2 |
| 20260507091550 | 40 | 306 | 0.0 | 1.0 | 0.00 | 0.30 | 0.00 | 85 | 1013.1 |
| 20260507090030 | 41 | 306 | 0.0 | 2.0 | 0.00 | 0.30 | 0.00 | 84 | 1013.3 |
| 20260507084529 | 41 | 306 | 0.0 | 2.0 | 0.00 | 0.31 | 0.00 | 84 | 1013.3 |
| 20260507083026 | 42 | 306 | 0.0 | 2.0 | 0.00 | 0.31 | 0.00 | 84 | 1013.3 |
| 20260507081534 | 43 | 306 | 1.0 | 4.0 | 0.00 | 0.31 | 0.00 | 85 | 1013.1 |
| 20260507080024 | 43 | 306 | 1.0 | 2.0 | 0.00 | 0.31 | 0.00 | 85 | 1013.2 |
| 20260507074522 | 43 | 306 | 1.0 | 3.0 | 0.00 | 0.31 | 0.00 | 85 | 1013.1 |
| 20260507073021 | 43 | 306 | 1.0 | 5.0 | 0.00 | 0.31 | 0.00 | 85 | 1013.1 |
| 20260507071520 | 43 | 306 | 0.0 | 4.0 | 0.00 | 0.31 | 0.00 | 85 | 1013.2 |
| 20260507070017 | 44 | 305 | 2.0 | 5.0 | 0.00 | 0.31 | 0.00 | 86 | 1013.3 |
| 20260507064515 | 44 | 281 | 2.0 | 7.0 | 0.00 | 0.31 | 0.00 | 87 | 1013.1 |
| 20260507063011 | 44 | 11 | 3.0 | 6.0 | 0.00 | 0.31 | 0.00 | 88 | 1012.8 |
| 20260507061526 | 44 | 306 | 1.0 | 9.0 | 0.00 | 0.31 | 0.00 | 90 | 1012.7 |
| 20260507060010 | 45 | 360 | 2.0 | 9.0 | 0.00 | 0.31 | 0.00 | 90 | 1012.5 |
| 20260507054506 | 46 | 355 | 0.0 | 6.0 | 0.00 | 0.31 | 0.00 | 91 | 1012.4 |
| 20260507053004 | 45 | 264 | 2.0 | 4.0 | 0.00 | 0.31 | 0.00 | 91 | 1012.1 |
| 20260507051503 | 45 | 264 | 0.0 | 1.0 | 0.00 | 0.31 | 0.00 | 91 | 1012.3 |
| 20260507050006 | 45 | 264 | 0.0 | 2.0 | 0.00 | 0.31 | 0.00 | 91 | 1012.3 |
| 20260507044604 | 45 | 264 | 0.0 | 1.0 | 0.00 | 0.31 | 0.00 | 90 | 1012.5 |
| 20260507043100 | 45 | 264 | 0.0 | 2.0 | 0.00 | 0.31 | 0.00 | 90 | 1012.5 |
| 20260507041600 | 45 | 264 | 0.0 | 1.0 | 0.00 | 0.31 | 0.00 | 90 | 1012.2 |
| 20260507040056 | 45 | 264 | 0.0 | 2.0 | 0.00 | 0.31 | 0.00 | 90 | 1012.1 |
| 20260507034559 | 45 | 264 | 0.0 | 2.0 | 0.00 | 0.31 | 0.31 | 90 | 1012.1 |
| 20260507033054 | 45 | 264 | 0.0 | 2.0 | 0.00 | 0.31 | 0.31 | 89 | 1012.0 |
| 20260507031553 | 45 | 264 | 0.0 | 2.0 | 0.00 | 0.31 | 0.31 | 89 | 1012.1 |
| 20260507030100 | 45 | 264 | 0.0 | 2.0 | 0.00 | 0.31 | 0.31 | 90 | 1012.0 |
| 20260507024550 | 45 | 264 | 1.0 | 2.0 | 0.00 | 0.31 | 0.31 | 89 | 1012.5 |
| 20260507023048 | 46 | 264 | 0.0 | 1.0 | 0.00 | 0.31 | 0.31 | 89 | 1012.2 |
| 20260507021604 | 46 | 264 | 0.0 | 2.0 | 0.00 | 0.31 | 0.31 | 89 | 1012.7 |
| 20260507020052 | 46 | 264 | 0.0 | 2.0 | 0.00 | 0.31 | 0.31 | 89 | 1012.7 |
| 20260507014602 | 46 | 264 | 0.0 | 2.0 | 0.00 | 0.31 | 0.31 | 89 | 1012.6 |
| 20260507013044 | 46 | 264 | 0.0 | 2.0 | 0.00 | 0.31 | 0.31 | 89 | 1012.5 |
| 20260507011543 | 46 | 264 | 0.0 | 1.0 | 0.00 | 0.31 | 0.31 | 88 | 1012.6 |
| 20260507010044 | 46 | 264 | 0.0 | 2.0 | 0.00 | 0.31 | 0.31 | 89 | 1012.3 |
| 20260507004542 | 47 | 264 | 0.0 | 2.0 | 0.00 | 0.31 | 0.31 | 89 | 1012.1 |
| 20260507003037 | 47 | 264 | 0.0 | 2.0 | 0.00 | 0.31 | 0.31 | 88 | 1012.0 |
| 20260507001536 | 47 | 264 | 1.0 | 2.0 | 0.00 | 0.31 | 0.31 | 88 | 1011.7 |
| 20260507000036 | 47 | 264 | 0.0 | 4.0 | 0.00 | 0.31 | 0.31 | 88 | 1011.6 |
| 20260506234533 | 47 | 264 | 0.0 | 3.0 | 0.00 | 0.31 | 0.31 | 88 | 1011.6 |
| 20260506233032 | 47 | 264 | 0.0 | 2.0 | 0.00 | 0.31 | 0.31 | 88 | 1011.2 |
| 20260506231532 | 47 | 264 | 1.0 | 3.0 | 0.00 | 0.31 | 0.31 | 88 | 1011.4 |
| 20260506230028 | 47 | 264 | 0.0 | 1.0 | 0.00 | 0.31 | 0.31 | 89 | 1011.2 |
| 20260506224530 | 47 | 264 | 1.0 | 4.0 | 0.00 | 0.31 | 0.31 | 89 | 1011.2 |
| 20260506221525 | 48 | 326 | 2.0 | 5.0 | 0.00 | 0.31 | 0.31 | 90 | 1010.5 |
| 20260506220030 | 47 | 288 | 0.0 | 10.0 | 0.00 | 0.31 | 0.31 | 90 | 1010.3 |
| 20260506214521 | 47 | 286 | 6.0 | 12.0 | 0.00 | 0.31 | 0.31 | 90 | 1010.4 |
| 20260506213018 | 48 | 286 | 2.0 | 9.0 | 0.00 | 0.31 | 0.31 | 90 | 1010.3 |
| 20260506211514 | 48 | 285 | 2.0 | 11.0 | 0.00 | 0.31 | 0.31 | 91 | 1010.0 |
| 20260506210012 | 48 | 289 | 2.0 | 7.0 | 0.00 | 0.31 | 0.31 | 91 | 1009.6 |
| 20260506204509 | 48 | 242 | 0.0 | 8.0 | 0.00 | 0.31 | 0.31 | 91 | 1009.2 |
| 20260506203010 | 48 | 5 | 3.0 | 6.0 | 0.01 | 0.31 | 0.31 | 91 | 1009.1 |
| 20260506201508 | 49 | 286 | 2.0 | 7.0 | 0.01 | 0.31 | 0.31 | 91 | 1008.4 |
| 20260506200008 | 49 | 296 | 1.0 | 9.0 | 0.02 | 0.31 | 0.31 | 91 | 1008.5 |
| 20260506194505 | 49 | 274 | 3.0 | 8.0 | 0.02 | 0.42 | 0.31 | 91 | 1008.5 |
| 20260506193005 | 49 | 298 | 1.0 | 7.0 | 0.01 | 0.41 | 0.30 | 91 | 1008.4 |
| 20260506191503 | 50 | 312 | 0.0 | 6.0 | 0.01 | 0.41 | 0.30 | 90 | 1008.1 |
| 20260506190100 | 50 | 284 | 1.0 | 10.0 | 0.00 | 0.40 | 0.28 | 90 | 1008.0 |
| 20260506184601 | 50 | 302 | 2.0 | 7.0 | 0.01 | 0.40 | 0.28 | 90 | 1007.7 |
| 20260506183057 | 51 | 230 | 1.0 | 9.0 | 0.01 | 0.40 | 0.28 | 90 | 1007.7 |
| 20260506181554 | 51 | 307 | 3.0 | 9.0 | 0.01 | 0.40 | 0.28 | 89 | 1007.2 |
| 20260506180052 | 52 | 53 | 1.0 | 12.0 | 0.01 | 0.40 | 0.28 | 89 | 1007.0 |
| 20260506174548 | 55 | 268 | 3.0 | 10.0 | 0.00 | 0.39 | 0.28 | 88 | 1006.4 |
| 20260506173107 | 59 | 294 | 4.0 | 9.0 | 0.00 | 0.39 | 0.28 | 89 | 1006.2 |
| 20260506171555 | 59 | 169 | 6.0 | 11.0 | 0.00 | 0.39 | 0.28 | 90 | 1006.0 |
| 20260506170048 | 59 | 166 | 8.0 | 14.0 | 0.01 | 0.39 | 0.28 | 91 | 1006.0 |
| 20260506164544 | 59 | 180 | 4.0 | 8.0 | 0.01 | 0.39 | 0.28 | 92 | 1006.2 |
| 20260506163058 | 59 | 167 | 5.0 | 8.0 | 0.01 | 0.39 | 0.28 | 92 | 1006.3 |
| 20260506161543 | 58 | 156 | 4.0 | 7.0 | 0.02 | 0.39 | 0.28 | 91 | 1006.2 |
| 20260506160039 | 58 | 155 | 2.0 | 8.0 | 0.02 | 0.38 | 0.27 | 91 | 1006.4 |
| 20260506154545 | 58 | 159 | 4.0 | 9.0 | 0.03 | 0.38 | 0.27 | 91 | 1006.5 |
| 20260506153040 | 58 | 175 | 3.0 | 7.0 | 0.03 | 0.38 | 0.27 | 91 | 1006.2 |
| 20260506151636 | 58 | 186 | 3.0 | 9.0 | 0.03 | 0.37 | 0.26 | 91 | 1006.5 |
| 20260506150034 | 58 | 159 | 5.0 | 14.0 | 0.02 | 0.36 | 0.25 | 91 | 1006.2 |